| time (UTC) | temp F | wind direction | speed MPH | gust MPH | rain 1hr in | rain 24hr in | rain mn in | humidity % | barometer mb |
| 20260510204506 | 76 | 255 | 0.0 | 0.0 | 0.00 | 0.00 | 0.00 | 57 | 1013.2 |
| 20260510203001 | 75 | 285 | 0.0 | 0.0 | 0.00 | 0.00 | 0.00 | 58 | 1013.3 |
| 20260510201557 | 75 | 246 | 0.0 | 1.0 | 0.00 | 0.00 | 0.00 | 57 | 1013.4 |
| 20260510200111 | 74 | 297 | 0.0 | 0.0 | 0.00 | 0.00 | 0.00 | 58 | 1013.5 |
| 20260510194553 | 74 | 242 | 0.0 | 1.0 | 0.00 | 0.00 | 0.00 | 57 | 1013.6 |
| 20260510193052 | 72 | 226 | 0.0 | 0.0 | 0.00 | 0.00 | 0.00 | 57 | 1013.7 |
| 20260510191538 | 70 | 172 | 0.0 | 0.0 | 0.00 | 0.00 | 0.00 | 57 | 1013.9 |
| 20260510190034 | 69 | 200 | 0.0 | 0.0 | 0.00 | 0.00 | 0.00 | 56 | 1014.0 |
| 20260510184523 | 68 | 231 | 0.0 | 0.0 | 0.00 | 0.00 | 0.00 | 55 | 1014.2 |
| 20260510183019 | 68 | 170 | 0.0 | 0.0 | 0.00 | 0.00 | 0.00 | 52 | 1014.2 |
| 20260510181523 | 66 | 176 | 0.0 | 0.0 | 0.00 | 0.00 | 0.00 | 47 | 1014.4 |
| 20260510180012 | 66 | 229 | 0.0 | 0.0 | 0.00 | 0.00 | 0.00 | 21 | 1014.5 |
| 20260510174509 | 66 | 166 | 0.0 | 0.0 | 0.00 | 0.00 | 0.00 | 3 | 1014.6 |
| 20260510173001 | 64 | 211 | 0.0 | 0.0 | 0.00 | 0.00 | 0.00 | 3 | 1014.7 |
| 20260510171541 | 62 | 219 | 0.0 | 0.0 | 0.00 | 0.00 | 0.00 | 3 | 1014.7 |
| 20260510170035 | 60 | 205 | 0.0 | 0.0 | 0.00 | 0.00 | 0.00 | 3 | 1014.7 |
| 20260510164515 | 58 | 181 | 0.0 | 0.0 | 0.00 | 0.00 | 0.00 | 3 | 1014.6 |
| 20260510163017 | 57 | 260 | 0.0 | 1.0 | 0.00 | 0.00 | 0.00 | 3 | 1014.6 |
| 20260510161548 | 56 | 221 | 0.0 | 0.0 | 0.00 | 0.00 | 0.00 | 3 | 1014.5 |
| 20260510160050 | 56 | 217 | 0.0 | 0.0 | 0.00 | 0.00 | 0.00 | 3 | 1014.4 |
| 20260510154522 | 55 | 224 | 0.0 | 0.0 | 0.00 | 0.00 | 0.00 | 3 | 1014.3 |
| 20260510153022 | 54 | 232 | 0.0 | 0.0 | 0.00 | 0.00 | 0.00 | 3 | 1014.2 |
| 20260510151559 | 54 | 231 | 0.0 | 0.0 | 0.00 | 0.00 | 0.00 | 3 | 1014.1 |
| 20260510151501 | 54 | 231 | 0.0 | 0.0 | 0.00 | 0.00 | 0.00 | 3 | 1014.1 |
| 20260510150056 | 53 | 231 | 0.0 | 0.0 | 0.00 | 0.00 | 0.00 | 3 | 1014.1 |
| 20260510144535 | 53 | 108 | 0.0 | 0.0 | 0.00 | 0.00 | 0.00 | 3 | 1014.1 |
| 20260510143026 | 53 | 130 | 0.0 | 0.0 | 0.00 | 0.00 | 0.00 | 3 | 1014.0 |
| 20260510141512 | 0 | 0.0 | 0.0 | 0.00 | 0.00 | 0.00 | 1013.8 | ||
| 20260510140100 | 0 | 0.0 | 0.0 | 0.00 | 0.00 | 0.00 | 1013.6 | ||
| 20260510134540 | 0 | 0.0 | 0.0 | 0.00 | 0.00 | 0.00 | 1013.4 | ||
| 20260510133036 | 0 | 0.0 | 0.0 | 0.00 | 0.00 | 0.00 | 1013.2 | ||
| 20260510131513 | 0 | 0.0 | 0.0 | 0.00 | 0.00 | 0.00 | 1013.1 | ||
| 20260510130010 | 0 | 0.0 | 0.0 | 0.00 | 0.00 | 0.00 | 1013.1 | ||
| 20260510124555 | 0 | 0.0 | 0.0 | 0.00 | 0.00 | 0.00 | 1013.1 | ||
| 20260510123043 | 0 | 0.0 | 0.0 | 0.00 | 0.00 | 0.00 | 1013.0 | ||
| 20260510121521 | 0 | 0.0 | 0.0 | 0.00 | 0.00 | 0.00 | 1013.1 | ||
| 20260510120019 | 0 | 0.0 | 0.0 | 0.00 | 0.00 | 0.00 | 1013.1 | ||
| 20260510114555 | 0 | 0.0 | 0.0 | 0.00 | 0.00 | 0.00 | 1013.2 | ||
| 20260510113051 | 52 | 131 | 0.0 | 0.0 | 0.00 | 0.00 | 0.00 | 3 | 1013.2 |
| 20260510111529 | 53 | 129 | 0.0 | 0.0 | 0.00 | 0.00 | 0.00 | 3 | 1013.3 |
| 20260510110024 | 53 | 197 | 0.0 | 0.0 | 0.00 | 0.00 | 0.00 | 3 | 1013.2 |
| 20260510104505 | 54 | 197 | 0.0 | 0.0 | 0.00 | 0.00 | 0.00 | 3 | 1013.1 |
| 20260510103108 | 54 | 97 | 0.0 | 0.0 | 0.00 | 0.00 | 0.00 | 3 | 1013.1 |
| 20260510101537 | 54 | 97 | 0.0 | 0.0 | 0.00 | 0.00 | 0.00 | 3 | 1013.2 |
| 20260510100032 | 54 | 70 | 0.0 | 0.0 | 0.00 | 0.00 | 0.00 | 3 | 1013.1 |
| 20260510094523 | 54 | 208 | 0.0 | 0.0 | 0.00 | 0.00 | 0.00 | 3 | 1013.1 |
| 20260510093006 | 54 | 208 | 0.0 | 0.0 | 0.00 | 0.00 | 0.00 | 3 | 1013.0 |
| 20260510091545 | 55 | 183 | 0.0 | 0.0 | 0.00 | 0.00 | 0.00 | 3 | 1013.1 |
| 20260510090044 | 55 | 23 | 0.0 | 0.0 | 0.00 | 0.00 | 0.00 | 3 | 1013.2 |
| 20260510084521 | 55 | 23 | 0.0 | 0.0 | 0.00 | 0.00 | 0.00 | 3 | 1013.2 |
| 20260510083016 | 55 | 27 | 0.0 | 0.0 | 0.00 | 0.00 | 0.00 | 3 | 1013.4 |
| 20260510081558 | 55 | 34 | 0.0 | 0.0 | 0.00 | 0.00 | 0.00 | 3 | 1013.4 |
| 20260510080049 | 55 | 83 | 0.0 | 0.0 | 0.00 | 0.00 | 0.00 | 3 | 1013.4 |
| 20260510074527 | 55 | 208 | 0.0 | 0.0 | 0.00 | 0.00 | 0.00 | 3 | 1013.3 |
| 20260510073023 | 55 | 177 | 0.0 | 0.0 | 0.00 | 0.00 | 0.00 | 3 | 1013.4 |
| 20260510071501 | 55 | 188 | 0.0 | 0.0 | 0.00 | 0.00 | 0.00 | 3 | 1013.3 |
| 20260510070058 | 55 | 172 | 0.0 | 0.0 | 0.00 | 0.00 | 0.00 | 3 | 1013.1 |
| 20260510064536 | 56 | 172 | 0.0 | 0.0 | 0.00 | 0.00 | 0.00 | 3 | 1013.1 |
| 20260510063033 | 56 | 172 | 0.0 | 0.0 | 0.00 | 0.00 | 0.00 | 3 | 1013.0 |
| 20260510061521 | 57 | 172 | 0.0 | 0.0 | 0.00 | 0.00 | 0.00 | 3 | 1013.1 |
| 20260510060007 | 58 | 168 | 0.0 | 0.0 | 0.00 | 0.00 | 0.00 | 3 | 1013.1 |
| 20260510054617 | 58 | 198 | 0.0 | 0.0 | 0.00 | 0.00 | 0.00 | 3 | 1013.1 |
| 20260510053041 | 59 | 200 | 0.0 | 0.0 | 0.00 | 0.00 | 0.00 | 3 | 1013.1 |
| 20260510051536 | 59 | 222 | 0.0 | 0.0 | 0.00 | 0.00 | 0.00 | 3 | 1012.9 |
| 20260510050014 | 60 | 217 | 0.0 | 0.0 | 0.00 | 0.00 | 0.00 | 3 | 1012.9 |
| 20260510044511 | 60 | 179 | 0.0 | 0.0 | 0.00 | 0.00 | 0.00 | 3 | 1012.7 |
| 20260510043048 | 60 | 211 | 0.0 | 0.0 | 0.00 | 0.00 | 0.00 | 3 | 1012.5 |
| 20260510041600 | 61 | 208 | 0.0 | 0.0 | 0.00 | 0.00 | 0.00 | 3 | 1012.4 |
| 20260510040023 | 61 | 204 | 0.0 | 0.0 | 0.00 | 0.00 | 0.00 | 3 | 1012.3 |
| 20260510034517 | 61 | 200 | 0.0 | 0.0 | 0.00 | 0.00 | 0.00 | 3 | 1012.0 |
| 20260510033115 | 61 | 211 | 0.0 | 0.0 | 0.00 | 0.00 | 0.00 | 7 | 1011.9 |
| 20260510031555 | 62 | 253 | 0.0 | 0.0 | 0.00 | 0.00 | 0.00 | 25 | 1011.8 |
| 20260510030035 | 62 | 204 | 0.0 | 1.0 | 0.00 | 0.00 | 0.00 | 39 | 1011.7 |
| 20260510024526 | 63 | 208 | 0.0 | 1.0 | 0.00 | 0.00 | 0.00 | 52 | 1011.6 |
| 20260510023005 | 64 | 155 | 0.0 | 5.0 | 0.00 | 0.00 | 0.00 | 58 | 1011.5 |
| 20260510021600 | 65 | 200 | 0.0 | 7.0 | 0.00 | 0.00 | 0.00 | 60 | 1011.5 |
| 20260510020039 | 66 | 208 | 0.0 | 2.0 | 0.00 | 0.00 | 0.00 | 61 | 1011.5 |
| 20260510014534 | 67 | 214 | 0.0 | 6.0 | 0.00 | 0.00 | 0.00 | 62 | 1011.5 |
| 20260510013013 | 67 | 217 | 0.0 | 4.0 | 0.00 | 0.00 | 0.00 | 62 | 1011.4 |
| 20260510011508 | 67 | 214 | 0.0 | 5.0 | 0.00 | 0.00 | 0.00 | 63 | 1011.5 |
| 20260510010052 | 68 | 146 | 0.0 | 8.0 | 0.00 | 0.00 | 0.00 | 63 | 1011.4 |
| 20260510004550 | 69 | 314 | 0.0 | 8.0 | 0.00 | 0.00 | 0.00 | 63 | 1011.6 |
| 20260510003043 | 70 | 301 | 0.0 | 4.0 | 0.00 | 0.00 | 0.00 | 62 | 1011.7 |
| 20260510001539 | 70 | 158 | 1.0 | 8.0 | 0.00 | 0.00 | 0.00 | 62 | 1011.9 |
| 20260510000034 | 70 | 169 | 1.0 | 11.0 | 0.00 | 0.00 | 0.00 | 63 | 1011.9 |
| 20260509234533 | 70 | 181 | 0.0 | 9.0 | 0.00 | 0.00 | 0.00 | 62 | 1012.2 |
| 20260509233024 | 71 | 244 | 2.0 | 11.0 | 0.00 | 0.00 | 0.00 | 61 | 1012.3 |
| 20260509231521 | 72 | 231 | 0.0 | 10.0 | 0.00 | 0.00 | 0.00 | 59 | 1012.3 |
| 20260509230059 | 73 | 254 | 0.0 | 8.0 | 0.00 | 0.00 | 0.00 | 60 | 1012.4 |
| 20260509224554 | 74 | 200 | 0.0 | 10.0 | 0.00 | 0.00 | 0.00 | 59 | 1012.6 |
| 20260509223044 | 74 | 145 | 1.0 | 12.0 | 0.00 | 0.00 | 0.00 | 59 | 1012.7 |
| 20260509221536 | 74 | 201 | 1.0 | 10.0 | 0.00 | 0.00 | 0.00 | 58 | 1012.8 |
| 20260509220028 | 75 | 167 | 0.0 | 8.0 | 0.00 | 0.00 | 0.00 | 58 | 1013.0 |
| 20260509214524 | 75 | 204 | 1.0 | 16.0 | 0.00 | 0.00 | 0.00 | 57 | 1013.1 |
| 20260509213019 | 75 | 204 | 0.0 | 8.0 | 0.00 | 0.00 | 0.00 | 57 | 1013.3 |
| 20260509211517 | 75 | 208 | 0.0 | 5.0 | 0.00 | 0.00 | 0.00 | 57 | 1013.4 |
| 20260509210011 | 75 | 232 | 0.0 | 7.0 | 0.00 | 0.00 | 0.00 | 58 | 1013.5 |